This is the latest recevied weather packets stored in our database for station/object W4OTS. If no packets are shown the sender has not sent any weather packets the latest 1 day(s).
| Time | Temp. | Humidity | Pressure | Rain* | Wind** | Luminosity | Snow |
|---|---|---|---|---|---|---|---|
| 1778049435 | 17.22° C | 79% | 1015.8 hPa | 0 mm | - | 0 W/m² | - |
| 1778048830 | 17.78° C | 78% | 1015.7 hPa | 0 mm | - | 0 W/m² | - |
| 1778048527 | 17.78° C | 77% | 1015.1 hPa | 0 mm | - | 0 W/m² | - |
| 1778047619 | 17.78° C | 76% | 1015.7 hPa | 0 mm | - | 0 W/m² | - |
| 1778047315 | 17.78° C | 76% | 1015.8 hPa | 0 mm | - | 0 W/m² | - |
| 1778046709 | 17.78° C | 76% | 1015.8 hPa | 0 mm | - | 0 W/m² | - |
| 1778046102 | 17.78° C | 75% | 1016.1 hPa | 0 mm | - | 0 W/m² | - |
| 1778045800 | 17.78° C | 75% | 1016.2 hPa | 0 mm | - | 0 W/m² | - |
| 1778044894 | 16.67° C | 74% | 1016.1 hPa | 0 mm | - | 0 W/m² | - |
| 1778044591 | 16.67° C | 72% | 1016.1 hPa | 0 mm | - | 0 W/m² | - |
| 1778044287 | 17.22° C | 72% | 1015.9 hPa | 0 mm | - | 0 W/m² | - |
| 1778043682 | 17.22° C | 69% | 1015.6 hPa | 0 mm | - | 0 W/m² | - |
| 1778043379 | 17.22° C | 70% | 1015.6 hPa | 0 mm | - | 0 W/m² | - |
| 1778042470 | 16.67° C | 71% | 1015.7 hPa | 0 mm | - | 0 W/m² | - |
| 1778041262 | 16.67° C | 73% | 1015.7 hPa | 0 mm | - | 0 W/m² | - |
| 1778040050 | 16.67° C | 70% | 1016.1 hPa | 0 mm | - | 0 W/m² | - |
| 1778039747 | 16.67° C | 70% | 1015.8 hPa | 0 mm | - | 0 W/m² | - |
| 1778039136 | 16.67° C | 70% | 1015.8 hPa | 0 mm | - | 0 W/m² | - |
| 1778038832 | 16.67° C | 69% | 1016 hPa | 0 mm | - | 0 W/m² | - |
| 1778038530 | 16.67° C | 70% | 1015.8 hPa | 0 mm | - | 0 W/m² | - |
| 1778038227 | 16.67° C | 71% | 1015.7 hPa | 0 mm | - | 0 W/m² | - |
| 1778037621 | 17.22° C | 69% | 1015.9 hPa | 0 mm | - | 0 W/m² | - |
| 1778037319 | 17.22° C | 68% | 1015.9 hPa | 0 mm | - | 0 W/m² | - |
| 1778036714 | 16.67° C | 69% | 1015.9 hPa | 0 mm | - | 0 W/m² | - |
| 1778036411 | 17.22° C | 68% | 1015.6 hPa | 0 mm | - | 0 W/m² | - |
* Rain latest hour (hover to see other rain measurements)
** Current wind speed in m/s (hover to see current wind gust speed)